Time,TemperatureF,DewpointF,PressureIn,WindDirection,WindDirectionDegrees,WindSpeedMPH,WindSpeedGustMPH,Humidity,HourlyPrecipIn,Conditions,Clouds,dailyrainin,SoftwareType,DateUTC
2013-05-13 00:02:00,58.5,39.4,30.12,North,-999,0.0,0.0,49,0.00,,,-99.99,FreeWX-Wi 1.01,2013-05-13 07:02:00,
2013-05-13 00:07:00,58.5,39.4,30.09,North,-999,0.0,0.0,49,0.00,,,-99.99,FreeWX-Wi 1.01,2013-05-13 07:07:00,
2013-05-13 00:12:00,58.3,39.2,30.09,North,-999,0.0,0.0,49,0.00,,,-99.99,FreeWX-Wi 1.01,2013-05-13 07:12:00,
2013-05-13 00:17:00,58.3,39.2,30.12,North,-999,0.0,0.0,49,0.00,,,-99.99,FreeWX-Wi 1.01,2013-05-13 07:17:00,
2013-05-13 00:22:00,58.1,39.0,30.12,North,-999,0.0,0.0,49,0.00,,,-99.99,FreeWX-Wi 1.01,2013-05-13 07:22:00,
2013-05-13 00:27:00,58.1,39.0,30.12,North,-999,0.0,0.0,49,0.00,,,-99.99,FreeWX-Wi 1.01,2013-05-13 07:27:00,
2013-05-13 00:32:00,58.1,39.0,30.12,North,-999,0.0,0.0,49,0.00,,,-99.99,FreeWX-Wi 1.01,2013-05-13 07:32:00,
2013-05-13 00:37:00,58.1,39.0,30.12,North,-999,0.0,0.0,49,0.00,,,-99.99,FreeWX-Wi 1.01,2013-05-13 07:37:00,
2013-05-13 00:42:00,58.1,39.0,30.12,North,-999,0.0,0.0,49,0.00,,,-99.99,FreeWX-Wi 1.01,2013-05-13 07:42:00,
2013-05-13 00:47:00,58.1,39.6,30.12,North,-999,0.0,0.0,50,0.00,,,-99.99,FreeWX-Wi 1.01,2013-05-13 07:47:00,
2013-05-13 00:52:00,58.1,39.6,30.12,North,-999,0.0,0.0,50,0.00,,,-99.99,FreeWX-Wi 1.01,2013-05-13 07:52:00,
2013-05-13 00:57:00,58.3,39.7,30.12,North,-999,0.0,0.0,50,0.00,,,-99.99,FreeWX-Wi 1.01,2013-05-13 07:57:00,
2013-05-13 01:02:00,58.1,39.6,30.12,North,-999,0.0,0.0,50,0.00,,,-99.99,FreeWX-Wi 1.01,2013-05-13 08:02:00,
2013-05-13 01:07:00,58.1,39.6,30.12,North,-999,0.0,0.0,50,0.00,,,-99.99,FreeWX-Wi 1.01,2013-05-13 08:07:00,
2013-05-13 01:12:00,58.1,39.6,30.12,North,-999,0.0,0.0,50,0.00,,,-99.99,FreeWX-Wi 1.01,2013-05-13 08:12:00,
2013-05-13 01:17:00,58.1,39.0,30.12,North,-999,0.0,0.0,49,0.00,,,-99.99,FreeWX-Wi 1.01,2013-05-13 08:17:00,
2013-05-13 01:22:00,58.1,39.0,30.12,North,-999,0.0,0.0,49,0.00,,,-99.99,FreeWX-Wi 1.01,2013-05-13 08:22:00,
2013-05-13 01:27:00,57.9,38.8,30.12,North,-999,0.0,0.0,49,0.00,,,-99.99,FreeWX-Wi 1.01,2013-05-13 08:27:00,
2013-05-13 01:32:00,57.9,38.8,30.12,North,-999,0.0,0.0,49,0.00,,,-99.99,FreeWX-Wi 1.01,2013-05-13 08:32:00,
2013-05-13 01:37:00,57.7,38.7,30.12,North,-999,0.0,0.0,49,0.00,,,-99.99,FreeWX-Wi 1.01,2013-05-13 08:37:00,
2013-05-13 01:42:00,57.7,38.7,30.12,North,-999,0.0,0.0,49,0.00,,,-99.99,FreeWX-Wi 1.01,2013-05-13 08:42:00,
2013-05-13 01:47:00,57.6,39.0,30.12,North,-999,0.0,0.0,50,0.00,,,-99.99,FreeWX-Wi 1.01,2013-05-13 08:47:00,
2013-05-13 01:52:00,57.6,39.0,30.12,North,-999,0.0,0.0,50,0.00,,,-99.99,FreeWX-Wi 1.01,2013-05-13 08:52:00,
2013-05-13 01:57:00,57.6,39.6,30.12,North,-999,0.0,0.0,51,0.00,,,-99.99,FreeWX-Wi 1.01,2013-05-13 08:57:00,
2013-05-13 02:02:00,57.6,39.6,30.12,North,-999,0.0,0.0,51,0.00,,,-99.99,FreeWX-Wi 1.01,2013-05-13 09:02:00,
2013-05-13 02:07:00,57.6,39.6,30.12,North,-999,0.0,0.0,51,0.00,,,-99.99,FreeWX-Wi 1.01,2013-05-13 09:07:00,
2013-05-13 02:12:00,57.6,39.6,30.12,North,-999,0.0,0.0,51,0.00,,,-99.99,FreeWX-Wi 1.01,2013-05-13 09:12:00,
2013-05-13 02:17:00,57.6,39.6,30.12,North,-999,0.0,0.0,51,0.00,,,-99.99,FreeWX-Wi 1.01,2013-05-13 09:17:00,
2013-05-13 02:22:00,57.6,40.6,30.12,North,-999,0.0,0.0,53,0.00,,,-99.99,FreeWX-Wi 1.01,2013-05-13 09:22:00,
2013-05-13 02:27:00,57.6,42.4,30.12,North,-999,0.0,0.0,57,0.00,,,-99.99,FreeWX-Wi 1.01,2013-05-13 09:27:00,
2013-05-13 02:32:00,57.4,43.2,30.12,North,-999,0.0,0.0,59,0.00,,,-99.99,FreeWX-Wi 1.01,2013-05-13 09:32:00,
2013-05-13 02:37:00,57.4,44.1,30.12,North,-999,0.0,0.0,61,0.00,,,-99.99,FreeWX-Wi 1.01,2013-05-13 09:37:00,
2013-05-13 02:42:00,57.4,45.0,30.12,North,-999,0.0,0.0,63,0.00,,,-99.99,FreeWX-Wi 1.01,2013-05-13 09:42:00,
2013-05-13 02:47:00,57.4,45.3,30.12,North,-999,0.0,0.0,64,0.00,,,-99.99,FreeWX-Wi 1.01,2013-05-13 09:47:00,
2013-05-13 02:52:00,57.4,45.7,30.12,North,-999,0.0,0.0,65,0.00,,,-99.99,FreeWX-Wi 1.01,2013-05-13 09:52:00,
2013-05-13 02:58:00,57.4,46.0,30.12,North,-999,0.0,0.0,66,0.00,,,-99.99,FreeWX-Wi 1.01,2013-05-13 09:58:00,
2013-05-13 03:03:00,57.2,46.4,30.12,North,-999,0.0,0.0,67,0.00,,,-99.99,FreeWX-Wi 1.01,2013-05-13 10:03:00,
2013-05-13 03:08:00,57.2,46.8,30.12,North,-999,0.0,0.0,68,0.00,,,-99.99,FreeWX-Wi 1.01,2013-05-13 10:08:00,
2013-05-13 03:13:00,57.2,46.8,30.12,North,-999,0.0,0.0,68,0.00,,,-99.99,FreeWX-Wi 1.01,2013-05-13 10:13:00,
2013-05-13 03:18:00,57.2,47.1,30.12,North,-999,0.0,0.0,69,0.00,,,-99.99,FreeWX-Wi 1.01,2013-05-13 10:18:00,
2013-05-13 03:23:00,57.2,47.1,30.12,North,-999,0.0,0.0,69,0.00,,,-99.99,FreeWX-Wi 1.01,2013-05-13 10:23:00,
2013-05-13 03:28:00,57.2,47.1,30.12,North,-999,0.0,0.0,69,0.00,,,-99.99,FreeWX-Wi 1.01,2013-05-13 10:28:00,
2013-05-13 03:33:00,57.2,47.1,30.12,North,-999,0.0,0.0,69,0.00,,,-99.99,FreeWX-Wi 1.01,2013-05-13 10:33:00,
2013-05-13 03:38:00,57.2,47.1,30.12,North,-999,0.0,0.0,69,0.00,,,-99.99,FreeWX-Wi 1.01,2013-05-13 10:38:00,
2013-05-13 03:43:00,57.2,47.1,30.12,North,-999,0.0,0.0,69,0.00,,,-99.99,FreeWX-Wi 1.01,2013-05-13 10:43:00,
2013-05-13 03:48:00,57.2,47.1,30.12,North,-999,0.0,0.0,69,0.00,,,-99.99,FreeWX-Wi 1.01,2013-05-13 10:48:00,
2013-05-13 03:53:00,57.2,47.1,30.12,North,-999,0.0,0.0,69,0.00,,,-99.99,FreeWX-Wi 1.01,2013-05-13 10:53:00,
2013-05-13 03:58:00,57.2,47.1,30.12,North,-999,0.0,0.0,69,0.00,,,-99.99,FreeWX-Wi 1.01,2013-05-13 10:58:00,
2013-05-13 04:03:00,57.2,47.1,30.09,North,-999,0.0,0.0,69,0.00,,,-99.99,FreeWX-Wi 1.01,2013-05-13 11:03:00,
2013-05-13 04:08:00,57.2,47.1,30.09,North,-999,0.0,0.0,69,0.00,,,-99.99,FreeWX-Wi 1.01,2013-05-13 11:08:00,
2013-05-13 04:13:00,57.2,47.1,30.09,North,-999,0.0,0.0,69,0.00,,,-99.99,FreeWX-Wi 1.01,2013-05-13 11:13:00,
2013-05-13 04:18:00,57.2,47.1,30.09,North,-999,0.0,0.0,69,0.00,,,-99.99,FreeWX-Wi 1.01,2013-05-13 11:18:00,
2013-05-13 04:23:00,57.2,46.8,30.09,North,-999,0.0,0.0,68,0.00,,,-99.99,FreeWX-Wi 1.01,2013-05-13 11:23:00,
2013-05-13 04:28:00,57.0,46.9,30.09,North,-999,0.0,0.0,69,0.00,,,-99.99,FreeWX-Wi 1.01,2013-05-13 11:28:00,
2013-05-13 04:33:00,57.0,46.9,30.09,North,-999,0.0,0.0,69,0.00,,,-99.99,FreeWX-Wi 1.01,2013-05-13 11:33:00,
2013-05-13 04:38:00,57.0,46.9,30.09,North,-999,0.0,0.0,69,0.00,,,-99.99,FreeWX-Wi 1.01,2013-05-13 11:38:00,
2013-05-13 04:43:00,57.0,46.9,30.09,North,-999,0.0,0.0,69,0.00,,,-99.99,FreeWX-Wi 1.01,2013-05-13 11:43:00,
2013-05-13 04:48:00,57.0,46.9,30.09,North,-999,0.0,0.0,69,0.00,,,-99.99,FreeWX-Wi 1.01,2013-05-13 11:48:00,
2013-05-13 04:53:00,57.0,46.9,30.09,North,-999,0.0,0.0,69,0.00,,,-99.99,FreeWX-Wi 1.01,2013-05-13 11:53:00,
2013-05-13 04:58:00,57.0,46.9,30.09,North,-999,0.0,0.0,69,0.00,,,-99.99,FreeWX-Wi 1.01,2013-05-13 11:58:00,
2013-05-13 05:03:00,56.8,46.4,30.09,North,-999,0.0,0.0,68,0.00,,,-99.99,FreeWX-Wi 1.01,2013-05-13 12:03:00,
2013-05-13 05:08:00,56.8,46.4,30.09,North,-999,0.0,0.0,68,0.00,,,-99.99,FreeWX-Wi 1.01,2013-05-13 12:08:00,
2013-05-13 05:13:00,56.7,46.2,30.09,North,-999,0.0,0.0,68,0.00,,,-99.99,FreeWX-Wi 1.01,2013-05-13 12:13:00,
2013-05-13 05:18:00,56.7,46.6,30.09,North,-999,0.0,0.0,69,0.00,,,-99.99,FreeWX-Wi 1.01,2013-05-13 12:18:00,
2013-05-13 05:23:00,56.7,46.6,30.09,North,-999,0.0,0.0,69,0.00,,,-99.99,FreeWX-Wi 1.01,2013-05-13 12:23:00,
2013-05-13 05:28:00,56.7,46.6,30.09,North,-999,0.0,0.0,69,0.00,,,-99.99,FreeWX-Wi 1.01,2013-05-13 12:28:00,
2013-05-13 05:33:00,56.7,46.6,30.09,North,-999,0.0,0.0,69,0.00,,,-99.99,FreeWX-Wi 1.01,2013-05-13 12:33:00,
2013-05-13 05:38:00,56.7,46.6,30.09,North,-999,0.0,0.0,69,0.00,,,-99.99,FreeWX-Wi 1.01,2013-05-13 12:38:00,
2013-05-13 05:43:00,56.7,46.6,30.09,North,-999,0.0,0.0,69,0.00,,,-99.99,FreeWX-Wi 1.01,2013-05-13 12:43:00,
2013-05-13 05:48:00,56.7,46.6,30.09,North,-999,0.0,0.0,69,0.00,,,-99.99,FreeWX-Wi 1.01,2013-05-13 12:48:00,
2013-05-13 05:53:00,56.7,46.6,30.09,North,-999,0.0,0.0,69,0.00,,,-99.99,FreeWX-Wi 1.01,2013-05-13 12:53:00,
2013-05-13 05:58:00,56.7,46.6,30.09,North,-999,0.0,0.0,69,0.00,,,-99.99,FreeWX-Wi 1.01,2013-05-13 12:58:00,
2013-05-13 06:03:00,56.7,46.6,30.09,North,-999,0.0,0.0,69,0.00,,,-99.99,FreeWX-Wi 1.01,2013-05-13 13:03:00,
2013-05-13 06:08:00,56.7,46.6,30.09,North,-999,0.0,0.0,69,0.00,,,-99.99,FreeWX-Wi 1.01,2013-05-13 13:08:00,
2013-05-13 06:13:00,56.7,46.6,30.09,North,-999,0.0,0.0,69,0.00,,,-99.99,FreeWX-Wi 1.01,2013-05-13 13:13:00,
2013-05-13 06:18:00,56.7,46.9,30.09,North,-999,0.0,0.0,70,0.00,,,-99.99,FreeWX-Wi 1.01,2013-05-13 13:18:00,
2013-05-13 06:23:00,56.7,46.9,30.09,North,-999,0.0,0.0,70,0.00,,,-99.99,FreeWX-Wi 1.01,2013-05-13 13:23:00,
2013-05-13 06:28:00,56.7,46.9,30.09,North,-999,0.0,0.0,70,0.00,,,-99.99,FreeWX-Wi 1.01,2013-05-13 13:28:00,
2013-05-13 06:33:00,56.7,46.9,30.09,North,-999,0.0,0.0,70,0.00,,,-99.99,FreeWX-Wi 1.01,2013-05-13 13:33:00,
2013-05-13 06:38:00,56.5,46.4,30.09,North,-999,0.0,0.0,69,0.00,,,-99.99,FreeWX-Wi 1.01,2013-05-13 13:38:00,
2013-05-13 06:43:00,56.7,46.6,30.09,North,-999,0.0,0.0,69,0.00,,,-99.99,FreeWX-Wi 1.01,2013-05-13 13:43:00,
2013-05-13 06:48:00,56.5,46.4,30.09,North,-999,0.0,0.0,69,0.00,,,-99.99,FreeWX-Wi 1.01,2013-05-13 13:48:00,
2013-05-13 06:53:00,56.5,46.8,30.09,North,-999,0.0,0.0,70,0.00,,,-99.99,FreeWX-Wi 1.01,2013-05-13 13:53:00,
2013-05-13 06:58:00,56.5,46.4,30.09,North,-999,0.0,0.0,69,0.00,,,-99.99,FreeWX-Wi 1.01,2013-05-13 13:58:00,
2013-05-13 07:03:00,56.5,46.4,30.09,North,-999,0.0,0.0,69,0.00,,,-99.99,FreeWX-Wi 1.01,2013-05-13 14:03:00,
2013-05-13 07:08:00,56.5,46.4,30.09,North,-999,0.0,0.0,69,0.00,,,-99.99,FreeWX-Wi 1.01,2013-05-13 14:08:00,
2013-05-13 07:13:00,56.5,46.4,30.09,North,-999,0.0,0.0,69,0.00,,,-99.99,FreeWX-Wi 1.01,2013-05-13 14:13:00,
2013-05-13 07:18:00,56.7,46.6,30.09,North,-999,0.0,0.0,69,0.00,,,-99.99,FreeWX-Wi 1.01,2013-05-13 14:18:00,
2013-05-13 07:23:00,56.7,46.9,30.09,North,-999,0.0,0.0,70,0.00,,,-99.99,FreeWX-Wi 1.01,2013-05-13 14:23:00,
2013-05-13 07:28:00,56.8,47.1,30.09,North,-999,0.0,0.0,70,0.00,,,-99.99,FreeWX-Wi 1.01,2013-05-13 14:28:00,
2013-05-13 07:33:00,56.8,46.8,30.09,North,-999,0.0,0.0,69,0.00,,,-99.99,FreeWX-Wi 1.01,2013-05-13 14:33:00,
2013-05-13 07:38:00,56.7,46.6,30.09,North,-999,0.0,0.0,69,0.00,,,-99.99,FreeWX-Wi 1.01,2013-05-13 14:38:00,
2013-05-13 07:43:00,56.7,46.6,30.09,North,-999,0.0,0.0,69,0.00,,,-99.99,FreeWX-Wi 1.01,2013-05-13 14:43:00,
2013-05-13 07:48:00,56.8,46.8,30.09,North,-999,0.0,0.0,69,0.00,,,-99.99,FreeWX-Wi 1.01,2013-05-13 14:48:00,
2013-05-13 07:53:00,56.7,45.9,30.09,North,-999,0.0,0.0,67,0.00,,,-99.99,FreeWX-Wi 1.01,2013-05-13 14:53:00,
2013-05-13 07:58:00,56.7,45.9,30.09,North,-999,0.0,0.0,67,0.00,,,-99.99,FreeWX-Wi 1.01,2013-05-13 14:58:00,
2013-05-13 08:03:00,56.8,46.0,30.09,North,-999,0.0,0.0,67,0.00,,,-99.99,FreeWX-Wi 1.01,2013-05-13 15:03:00,
2013-05-13 08:08:00,56.8,46.0,30.09,North,-999,0.0,0.0,67,0.00,,,-99.99,FreeWX-Wi 1.01,2013-05-13 15:08:00,
2013-05-13 08:13:00,57.0,46.2,30.09,North,-999,0.0,0.0,67,0.00,,,-99.99,FreeWX-Wi 1.01,2013-05-13 15:13:00,
2013-05-13 08:18:00,57.2,46.4,30.12,North,-999,0.0,0.0,67,0.00,,,-99.99,FreeWX-Wi 1.01,2013-05-13 15:18:00,
2013-05-13 08:23:00,57.2,45.9,30.12,North,-999,0.0,0.0,66,0.00,,,-99.99,FreeWX-Wi 1.01,2013-05-13 15:23:00,
2013-05-13 08:28:00,57.4,46.0,30.12,North,-999,0.0,0.0,66,0.00,,,-99.99,FreeWX-Wi 1.01,2013-05-13 15:28:00,
2013-05-13 08:33:00,57.4,45.7,30.12,North,-999,0.0,0.0,65,0.00,,,-99.99,FreeWX-Wi 1.01,2013-05-13 15:33:00,
2013-05-13 08:38:00,57.6,45.9,30.12,North,-999,0.0,0.0,65,0.00,,,-99.99,FreeWX-Wi 1.01,2013-05-13 15:38:00,
2013-05-13 08:43:00,57.4,45.3,30.12,North,-999,0.0,0.0,64,0.00,,,-99.99,FreeWX-Wi 1.01,2013-05-13 15:43:00,
2013-05-13 08:48:00,57.4,45.3,30.09,North,-999,0.0,0.0,64,0.00,,,-99.99,FreeWX-Wi 1.01,2013-05-13 15:48:00,
2013-05-13 08:53:00,57.4,45.3,30.09,North,-999,0.0,0.0,64,0.00,,,-99.99,FreeWX-Wi 1.01,2013-05-13 15:53:00,
2013-05-13 08:58:00,57.4,45.0,30.09,North,-999,0.0,0.0,63,0.00,,,-99.99,FreeWX-Wi 1.01,2013-05-13 15:58:00,
2013-05-13 09:03:00,57.4,45.0,30.09,North,-999,0.0,0.0,63,0.00,,,-99.99,FreeWX-Wi 1.01,2013-05-13 16:03:00,
2013-05-13 09:08:00,57.6,45.1,30.09,North,-999,0.0,0.0,63,0.00,,,-99.99,FreeWX-Wi 1.01,2013-05-13 16:08:00,
2013-05-13 09:13:00,57.7,45.1,30.09,North,-999,0.0,0.0,63,0.00,,,-99.99,FreeWX-Wi 1.01,2013-05-13 16:13:00,
2013-05-13 09:18:00,57.9,45.3,30.09,North,-999,0.0,0.0,63,0.00,,,-99.99,FreeWX-Wi 1.01,2013-05-13 16:18:00,
2013-05-13 09:23:00,57.9,45.0,30.09,North,-999,0.0,0.0,62,0.00,,,-99.99,FreeWX-Wi 1.01,2013-05-13 16:23:00,
2013-05-13 09:28:00,57.9,44.6,30.09,North,-999,0.0,0.0,61,0.00,,,-99.99,FreeWX-Wi 1.01,2013-05-13 16:28:00,
2013-05-13 09:33:00,57.9,43.7,30.12,North,-999,0.0,0.0,59,0.00,,,-99.99,FreeWX-Wi 1.01,2013-05-13 16:33:00,
2013-05-13 09:38:00,58.1,43.9,30.12,North,-999,0.0,0.0,59,0.00,,,-99.99,FreeWX-Wi 1.01,2013-05-13 16:38:00,
2013-05-13 09:43:00,58.1,42.4,30.12,North,-999,0.0,0.0,56,0.00,,,-99.99,FreeWX-Wi 1.01,2013-05-13 16:43:00,
2013-05-13 09:48:00,58.1,42.4,30.09,North,-999,0.0,0.0,56,0.00,,,-99.99,FreeWX-Wi 1.01,2013-05-13 16:48:00,
2013-05-13 09:53:00,58.1,41.5,30.09,North,-999,0.0,0.0,54,0.00,,,-99.99,FreeWX-Wi 1.01,2013-05-13 16:53:00,
2013-05-13 09:58:00,58.3,41.2,30.09,North,-999,0.0,0.0,53,0.00,,,-99.99,FreeWX-Wi 1.01,2013-05-13 16:58:00,
2013-05-13 10:03:00,58.5,41.9,30.09,North,-999,0.0,0.0,54,0.00,,,-99.99,FreeWX-Wi 1.01,2013-05-13 17:03:00,
2013-05-13 10:08:00,58.5,39.9,30.09,North,-999,0.0,3.1,50,0.00,,,-99.99,FreeWX-Wi 1.01,2013-05-13 17:08:00,
2013-05-13 10:13:00,58.5,39.4,30.09,North,-999,0.0,3.1,49,0.00,,,-99.99,FreeWX-Wi 1.01,2013-05-13 17:13:00,
2013-05-13 10:18:00,58.5,39.9,30.09,North,-999,0.0,2.2,50,0.00,,,-99.99,FreeWX-Wi 1.01,2013-05-13 17:18:00,
2013-05-13 10:23:00,58.6,39.6,30.09,North,-999,0.0,0.0,49,0.00,,,-99.99,FreeWX-Wi 1.01,2013-05-13 17:23:00,
2013-05-13 10:28:00,58.8,40.6,30.09,North,-999,0.0,0.0,51,0.00,,,-99.99,FreeWX-Wi 1.01,2013-05-13 17:28:00,
2013-05-13 10:33:00,58.8,39.2,30.09,North,-999,0.0,0.0,48,0.00,,,-99.99,FreeWX-Wi 1.01,2013-05-13 17:33:00,
2013-05-13 10:38:00,59.0,39.9,30.09,North,-999,0.0,0.0,49,0.00,,,-99.99,FreeWX-Wi 1.01,2013-05-13 17:38:00,
2013-05-13 10:43:00,59.2,39.0,30.09,North,-999,0.0,0.0,47,0.00,,,-99.99,FreeWX-Wi 1.01,2013-05-13 17:43:00,
2013-05-13 10:48:00,59.4,39.2,30.09,North,-999,0.0,0.0,47,0.00,,,-99.99,FreeWX-Wi 1.01,2013-05-13 17:48:00,
2013-05-13 10:53:00,59.4,39.2,30.09,North,-999,0.0,0.0,47,0.00,,,-99.99,FreeWX-Wi 1.01,2013-05-13 17:53:00,
2013-05-13 10:59:00,59.4,37.9,30.09,North,-999,0.0,0.0,45,0.00,,,-99.99,FreeWX-Wi 1.01,2013-05-13 17:59:00,
2013-05-13 11:04:00,59.7,38.8,30.12,North,-999,0.0,0.0,46,0.00,,,-99.99,FreeWX-Wi 1.01,2013-05-13 18:04:00,
2013-05-13 11:09:00,60.3,39.9,30.12,North,-999,0.0,0.0,47,0.00,,,-99.99,FreeWX-Wi 1.01,2013-05-13 18:09:00,
2013-05-13 11:14:00,60.4,39.6,30.12,North,-999,0.0,0.0,46,0.00,,,-99.99,FreeWX-Wi 1.01,2013-05-13 18:14:00,
2013-05-13 11:19:00,60.6,39.7,30.12,North,-999,0.0,0.0,46,0.00,,,-99.99,FreeWX-Wi 1.01,2013-05-13 18:19:00,
2013-05-13 11:24:00,60.8,38.7,30.12,North,-999,0.0,0.0,44,0.00,,,-99.99,FreeWX-Wi 1.01,2013-05-13 18:24:00,
2013-05-13 11:29:00,61.7,37.8,30.12,North,-999,0.0,0.0,41,0.00,,,-99.99,FreeWX-Wi 1.01,2013-05-13 18:29:00,
2013-05-13 11:34:00,63.3,37.9,30.12,North,-999,0.0,0.0,39,0.00,,,-99.99,FreeWX-Wi 1.01,2013-05-13 18:34:00,
2013-05-13 11:39:00,64.8,37.2,30.12,North,-999,0.0,0.0,36,0.00,,,-99.99,FreeWX-Wi 1.01,2013-05-13 18:39:00,
2013-05-13 11:44:00,65.5,36.3,30.12,North,-999,0.0,0.0,34,0.00,,,-99.99,FreeWX-Wi 1.01,2013-05-13 18:44:00,
2013-05-13 11:49:00,66.2,34.7,30.12,North,-999,0.0,2.7,31,0.00,,,-99.99,FreeWX-Wi 1.01,2013-05-13 18:49:00,
2013-05-13 11:54:00,66.9,30.9,30.12,North,-999,0.0,2.7,26,0.00,,,-99.99,FreeWX-Wi 1.01,2013-05-13 18:54:00,
2013-05-13 11:59:00,67.3,30.2,30.12,North,-999,0.0,0.0,25,0.00,,,-99.99,FreeWX-Wi 1.01,2013-05-13 18:59:00,
2013-05-13 12:04:00,67.8,28.6,30.12,North,-999,0.0,2.7,23,0.00,,,-99.99,FreeWX-Wi 1.01,2013-05-13 19:04:00,
2013-05-13 12:09:00,68.7,28.4,30.12,North,-999,0.0,2.2,22,0.00,,,-99.99,FreeWX-Wi 1.01,2013-05-13 19:09:00,
2013-05-13 12:14:00,70.3,29.7,30.12,North,-999,0.0,2.7,22,0.00,,,-99.99,FreeWX-Wi 1.01,2013-05-13 19:14:00,
2013-05-13 12:19:00,70.5,26.2,30.12,North,-999,0.0,2.7,19,0.00,,,-99.99,FreeWX-Wi 1.01,2013-05-13 19:19:00,
2013-05-13 12:24:00,69.3,22.6,30.12,North,-999,0.0,2.7,17,0.00,,,-99.99,FreeWX-Wi 1.01,2013-05-13 19:24:00,
2013-05-13 12:29:00,69.4,22.8,30.12,North,-999,0.0,2.2,17,0.00,,,-99.99,FreeWX-Wi 1.01,2013-05-13 19:29:00,
2013-05-13 12:34:00,70.3,23.5,30.12,North,-999,0.0,2.7,17,0.00,,,-99.99,FreeWX-Wi 1.01,2013-05-13 19:34:00,
2013-05-13 12:39:00,70.2,23.4,30.12,North,-999,0.0,3.6,17,0.00,,,-99.99,FreeWX-Wi 1.01,2013-05-13 19:39:00,
2013-05-13 12:44:00,70.0,23.2,30.12,North,-999,0.0,3.1,17,0.00,,,-99.99,FreeWX-Wi 1.01,2013-05-13 19:44:00,
2013-05-13 12:49:00,69.6,22.8,30.12,North,-999,0.0,2.7,17,0.00,,,-99.99,FreeWX-Wi 1.01,2013-05-13 19:49:00,
2013-05-13 12:54:00,69.4,22.8,30.12,North,-999,0.0,3.6,17,0.00,,,-99.99,FreeWX-Wi 1.01,2013-05-13 19:54:00,
2013-05-13 12:59:00,68.9,22.3,30.12,North,-999,0.0,3.1,17,0.00,,,-99.99,FreeWX-Wi 1.01,2013-05-13 19:59:00,
2013-05-13 13:04:00,70.0,23.2,30.12,North,-999,0.0,2.7,17,0.00,,,-99.99,FreeWX-Wi 1.01,2013-05-13 20:04:00,
2013-05-13 13:09:00,70.3,23.5,30.12,North,-999,0.0,2.7,17,0.00,,,-99.99,FreeWX-Wi 1.01,2013-05-13 20:09:00,
2013-05-13 13:14:00,70.0,23.2,30.12,North,-999,0.0,2.2,17,0.00,,,-99.99,FreeWX-Wi 1.01,2013-05-13 20:14:00,
2013-05-13 13:19:00,69.4,19.8,30.12,North,-999,0.0,3.6,15,0.00,,,-99.99,FreeWX-Wi 1.01,2013-05-13 20:19:00,
2013-05-13 13:24:00,69.1,19.6,30.12,North,-999,0.0,0.0,15,0.00,,,-99.99,FreeWX-Wi 1.01,2013-05-13 20:24:00,
2013-05-13 13:29:00,68.7,19.2,30.12,North,-999,0.0,4.0,15,0.00,,,-99.99,FreeWX-Wi 1.01,2013-05-13 20:29:00,
2013-05-13 13:34:00,68.5,19.0,30.15,North,-999,0.0,3.6,15,0.00,,,-99.99,FreeWX-Wi 1.01,2013-05-13 20:34:00,
2013-05-13 13:39:00,68.4,21.9,30.15,North,-999,0.0,4.9,17,0.00,,,-99.99,FreeWX-Wi 1.01,2013-05-13 20:39:00,
2013-05-13 13:44:00,67.8,25.3,30.15,North,-999,0.0,3.1,20,0.00,,,-99.99,FreeWX-Wi 1.01,2013-05-13 20:44:00,
2013-05-13 13:49:00,66.9,26.8,30.15,North,-999,0.0,2.7,22,0.00,,,-99.99,FreeWX-Wi 1.01,2013-05-13 20:49:00,
2013-05-13 13:54:00,66.4,27.5,30.15,North,-999,0.0,3.6,23,0.00,,,-99.99,FreeWX-Wi 1.01,2013-05-13 20:54:00,
2013-05-13 13:59:00,66.2,28.4,30.15,North,-999,0.0,0.0,24,0.00,,,-99.99,FreeWX-Wi 1.01,2013-05-13 20:59:00,
2013-05-13 14:04:00,66.0,30.2,30.18,North,-999,0.0,0.0,26,0.00,,,-99.99,FreeWX-Wi 1.01,2013-05-13 21:04:00,
2013-05-13 14:09:00,65.8,30.0,30.18,North,-999,0.0,2.7,26,0.00,,,-99.99,FreeWX-Wi 1.01,2013-05-13 21:09:00,
2013-05-13 14:14:00,65.5,30.6,30.18,North,-999,0.0,2.7,27,0.00,,,-99.99,FreeWX-Wi 1.01,2013-05-13 21:14:00,
2013-05-13 14:19:00,65.8,35.2,30.18,North,-999,0.0,0.0,32,0.00,,,-99.99,FreeWX-Wi 1.01,2013-05-13 21:19:00,
2013-05-13 14:24:00,66.0,32.0,30.18,North,-999,0.0,0.0,28,0.00,,,-99.99,FreeWX-Wi 1.01,2013-05-13 21:24:00,
2013-05-13 14:29:00,66.4,32.4,30.18,North,-999,0.0,0.0,28,0.00,,,-99.99,FreeWX-Wi 1.01,2013-05-13 21:29:00,
2013-05-13 14:34:00,66.6,31.5,30.18,North,-999,0.0,0.0,27,0.00,,,-99.99,FreeWX-Wi 1.01,2013-05-13 21:34:00,
2013-05-13 14:39:00,66.2,31.3,30.18,North,-999,0.0,0.0,27,0.00,,,-99.99,FreeWX-Wi 1.01,2013-05-13 21:39:00,
2013-05-13 14:44:00,66.4,29.5,30.18,North,-999,0.0,0.0,25,0.00,,,-99.99,FreeWX-Wi 1.01,2013-05-13 21:44:00,
2013-05-13 14:49:00,66.2,29.3,30.18,North,-999,0.0,2.7,25,0.00,,,-99.99,FreeWX-Wi 1.01,2013-05-13 21:49:00,
2013-05-13 14:54:00,65.5,26.8,30.18,North,-999,0.0,5.4,23,0.00,,,-99.99,FreeWX-Wi 1.01,2013-05-13 21:54:00,
2013-05-13 14:59:00,65.8,28.0,30.18,North,-999,0.0,5.4,24,0.00,,,-99.99,FreeWX-Wi 1.01,2013-05-13 21:59:00,
2013-05-13 15:04:00,66.4,27.5,30.18,North,-999,0.0,5.4,23,0.00,,,-99.99,FreeWX-Wi 1.01,2013-05-13 22:04:00,
2013-05-13 15:09:00,66.7,27.7,30.18,West,273,1.0,3.6,23,0.00,,,-99.99,FreeWX-Wi 1.01,2013-05-13 22:09:00,
2013-05-13 15:14:00,67.1,28.0,30.18,West,275,1.0,4.0,23,0.00,,,-99.99,FreeWX-Wi 1.01,2013-05-13 22:14:00,
2013-05-13 15:19:00,66.9,24.6,30.21,West,277,1.0,3.6,20,0.00,,,-99.99,FreeWX-Wi 1.01,2013-05-13 22:19:00,
2013-05-13 15:24:00,66.6,24.3,30.21,West,275,1.0,0.0,20,0.00,,,-99.99,FreeWX-Wi 1.01,2013-05-13 22:24:00,
2013-05-13 15:29:00,66.2,23.9,30.21,North,-999,0.0,2.7,20,0.00,,,-99.99,FreeWX-Wi 1.01,2013-05-13 22:29:00,
2013-05-13 15:34:00,66.6,24.3,30.21,North,-999,0.0,4.9,20,0.00,,,-99.99,FreeWX-Wi 1.01,2013-05-13 22:34:00,
2013-05-13 15:39:00,66.6,20.5,30.21,North,-999,0.0,4.0,17,0.00,,,-99.99,FreeWX-Wi 1.01,2013-05-13 22:39:00,
2013-05-13 15:44:00,66.7,20.5,30.21,North,-999,0.0,0.0,17,0.00,,,-99.99,FreeWX-Wi 1.01,2013-05-13 22:44:00,
2013-05-13 15:49:00,66.7,20.5,30.21,North,-999,0.0,3.6,17,0.00,,,-99.99,FreeWX-Wi 1.01,2013-05-13 22:49:00,
2013-05-13 15:54:00,66.7,20.5,30.21,North,-999,0.0,2.7,17,0.00,,,-99.99,FreeWX-Wi 1.01,2013-05-13 22:54:00,
2013-05-13 15:59:00,66.7,20.5,30.21,North,-999,0.0,3.1,17,0.00,,,-99.99,FreeWX-Wi 1.01,2013-05-13 22:59:00,
2013-05-13 16:04:00,66.4,20.3,30.21,North,-999,0.0,0.0,17,0.00,,,-99.99,FreeWX-Wi 1.01,2013-05-13 23:04:00,
2013-05-13 16:09:00,66.2,20.1,30.21,North,-999,0.0,0.0,17,0.00,,,-99.99,FreeWX-Wi 1.01,2013-05-13 23:09:00,
2013-05-13 16:14:00,65.8,16.9,30.21,North,-999,0.0,4.0,15,0.00,,,-99.99,FreeWX-Wi 1.01,2013-05-13 23:14:00,
2013-05-13 16:19:00,65.5,20.8,30.21,North,-999,0.0,3.6,18,0.00,,,-99.99,FreeWX-Wi 1.01,2013-05-13 23:19:00,
2013-05-13 16:24:00,65.1,20.5,30.21,North,-999,0.0,3.1,18,0.00,,,-99.99,FreeWX-Wi 1.01,2013-05-13 23:24:00,
2013-05-13 16:29:00,64.9,20.5,30.21,North,-999,0.0,0.0,18,0.00,,,-99.99,FreeWX-Wi 1.01,2013-05-13 23:29:00,
2013-05-13 16:34:00,64.9,20.5,30.21,North,-999,0.0,3.6,18,0.00,,,-99.99,FreeWX-Wi 1.01,2013-05-13 23:34:00,
2013-05-13 16:39:00,65.1,20.5,30.21,North,-999,0.0,0.0,18,0.00,,,-99.99,FreeWX-Wi 1.01,2013-05-13 23:39:00,
2013-05-13 16:44:00,65.1,20.5,30.21,North,-999,0.0,0.0,18,0.00,,,-99.99,FreeWX-Wi 1.01,2013-05-13 23:44:00,
2013-05-13 16:49:00,64.6,16.0,30.21,North,-999,0.0,6.7,15,0.00,,,-99.99,FreeWX-Wi 1.01,2013-05-13 23:49:00,
2013-05-13 16:54:00,64.2,17.1,30.21,North,-999,0.0,2.7,16,0.00,,,-99.99,FreeWX-Wi 1.01,2013-05-13 23:54:00,
2013-05-13 16:59:00,64.2,19.8,30.21,North,-999,0.0,4.9,18,0.00,,,-99.99,FreeWX-Wi 1.01,2013-05-13 23:59:00,
2013-05-13 17:04:00,63.9,19.6,30.21,North,-999,0.0,3.6,18,0.00,,,-99.99,FreeWX-Wi 1.01,2013-05-14 00:04:00,
2013-05-13 17:09:00,63.5,19.2,30.21,North,-999,0.0,3.6,18,0.00,,,-99.99,FreeWX-Wi 1.01,2013-05-14 00:09:00,
2013-05-13 17:14:00,63.5,19.2,30.21,North,-999,0.0,3.6,18,0.00,,,-99.99,FreeWX-Wi 1.01,2013-05-14 00:14:00,
2013-05-13 17:19:00,63.1,22.6,30.21,North,-999,0.0,4.0,21,0.00,,,-99.99,FreeWX-Wi 1.01,2013-05-14 00:19:00,
2013-05-13 17:24:00,63.0,18.9,30.21,North,-999,0.0,3.1,18,0.00,,,-99.99,FreeWX-Wi 1.01,2013-05-14 00:24:00,
2013-05-13 17:29:00,63.0,22.5,30.21,North,-999,0.0,2.7,21,0.00,,,-99.99,FreeWX-Wi 1.01,2013-05-14 00:29:00,
2013-05-13 17:34:00,62.8,18.7,30.21,North,-999,0.0,0.0,18,0.00,,,-99.99,FreeWX-Wi 1.01,2013-05-14 00:34:00,
2013-05-13 17:39:00,62.6,18.5,30.21,North,-999,0.0,3.1,18,0.00,,,-99.99,FreeWX-Wi 1.01,2013-05-14 00:39:00,
2013-05-13 17:44:00,62.4,21.9,30.21,North,-999,0.0,3.6,21,0.00,,,-99.99,FreeWX-Wi 1.01,2013-05-14 00:44:00,
2013-05-13 17:49:00,62.2,25.0,30.21,North,-999,0.0,0.0,24,0.00,,,-99.99,FreeWX-Wi 1.01,2013-05-14 00:49:00,
2013-05-13 17:54:00,61.9,21.6,30.21,North,-999,0.0,0.0,21,0.00,,,-99.99,FreeWX-Wi 1.01,2013-05-14 00:54:00,
2013-05-13 17:59:00,61.7,21.4,30.21,North,-999,0.0,0.0,21,0.00,,,-99.99,FreeWX-Wi 1.01,2013-05-14 00:59:00,
2013-05-13 18:04:00,61.3,21.0,30.21,North,-999,0.0,3.6,21,0.00,,,-99.99,FreeWX-Wi 1.01,2013-05-14 01:04:00,
2013-05-13 18:09:00,61.0,20.8,30.21,North,-999,0.0,3.1,21,0.00,,,-99.99,FreeWX-Wi 1.01,2013-05-14 01:09:00,
2013-05-13 18:14:00,61.0,20.8,30.21,North,-999,0.0,2.7,21,0.00,,,-99.99,FreeWX-Wi 1.01,2013-05-14 01:14:00,
2013-05-13 18:19:00,61.0,20.8,30.21,North,-999,0.0,0.0,21,0.00,,,-99.99,FreeWX-Wi 1.01,2013-05-14 01:19:00,
2013-05-13 18:24:00,61.2,20.8,30.21,North,-999,0.0,0.0,21,0.00,,,-99.99,FreeWX-Wi 1.01,2013-05-14 01:24:00,
2013-05-13 18:29:00,61.2,20.8,30.21,North,-999,0.0,3.6,21,0.00,,,-99.99,FreeWX-Wi 1.01,2013-05-14 01:29:00,
2013-05-13 18:34:00,61.2,20.8,30.21,North,-999,0.0,3.6,21,0.00,,,-99.99,FreeWX-Wi 1.01,2013-05-14 01:34:00,
2013-05-13 18:39:00,61.0,20.8,30.21,North,-999,0.0,0.0,21,0.00,,,-99.99,FreeWX-Wi 1.01,2013-05-14 01:39:00,
2013-05-13 18:44:00,60.8,20.7,30.21,North,-999,0.0,4.0,21,0.00,,,-99.99,FreeWX-Wi 1.01,2013-05-14 01:44:00,
2013-05-13 18:49:00,60.4,21.4,30.21,North,-999,0.0,4.0,22,0.00,,,-99.99,FreeWX-Wi 1.01,2013-05-14 01:49:00,
2013-05-13 18:54:00,60.3,21.2,30.21,North,-999,0.0,0.0,22,0.00,,,-99.99,FreeWX-Wi 1.01,2013-05-14 01:54:00,
2013-05-13 18:59:00,60.1,21.2,30.21,North,-999,0.0,3.1,22,0.00,,,-99.99,FreeWX-Wi 1.01,2013-05-14 01:59:00,
2013-05-13 19:04:00,60.1,23.2,30.24,North,-999,0.0,0.0,24,0.00,,,-99.99,FreeWX-Wi 1.01,2013-05-14 02:04:00,
2013-05-13 19:09:00,59.9,21.0,30.24,North,-999,0.0,2.7,22,0.00,,,-99.99,FreeWX-Wi 1.01,2013-05-14 02:09:00,
2013-05-13 19:14:00,59.9,23.0,30.24,North,-999,0.0,0.0,24,0.00,,,-99.99,FreeWX-Wi 1.01,2013-05-14 02:14:00,
2013-05-13 19:19:00,59.7,22.8,30.21,North,-999,0.0,2.2,24,0.00,,,-99.99,FreeWX-Wi 1.01,2013-05-14 02:19:00,
2013-05-13 19:24:00,59.5,22.6,30.21,North,-999,0.0,0.0,24,0.00,,,-99.99,FreeWX-Wi 1.01,2013-05-14 02:24:00,
2013-05-13 19:29:00,59.4,22.6,30.21,North,-999,0.0,0.0,24,0.00,,,-99.99,FreeWX-Wi 1.01,2013-05-14 02:29:00,
2013-05-13 19:35:00,59.2,22.5,30.21,North,-999,0.0,0.0,24,0.00,,,-99.99,FreeWX-Wi 1.01,2013-05-14 02:35:00,
2013-05-13 19:40:00,58.8,22.1,30.21,North,-999,0.0,0.0,24,0.00,,,-99.99,FreeWX-Wi 1.01,2013-05-14 02:40:00,
2013-05-13 19:45:00,58.6,21.9,30.21,North,-999,0.0,0.0,24,0.00,,,-99.99,FreeWX-Wi 1.01,2013-05-14 02:45:00,
2013-05-13 19:50:00,58.5,21.7,30.21,North,-999,0.0,0.0,24,0.00,,,-99.99,FreeWX-Wi 1.01,2013-05-14 02:50:00,
2013-05-13 19:55:00,58.1,21.6,30.21,North,-999,0.0,0.0,24,0.00,,,-99.99,FreeWX-Wi 1.01,2013-05-14 02:55:00,
2013-05-13 20:00:00,57.9,21.4,30.21,North,-999,0.0,0.0,24,0.00,,,-99.99,FreeWX-Wi 1.01,2013-05-14 03:00:00,
2013-05-13 20:05:00,57.4,21.9,30.21,North,-999,0.0,0.0,25,0.00,,,-99.99,FreeWX-Wi 1.01,2013-05-14 03:05:00,
2013-05-13 20:10:00,57.4,21.9,30.21,North,-999,0.0,0.0,25,0.00,,,-99.99,FreeWX-Wi 1.01,2013-05-14 03:10:00,
2013-05-13 20:15:00,57.2,21.7,30.21,North,-999,0.0,0.0,25,0.00,,,-99.99,FreeWX-Wi 1.01,2013-05-14 03:15:00,
2013-05-13 20:20:00,57.0,21.6,30.21,North,-999,0.0,0.0,25,0.00,,,-99.99,FreeWX-Wi 1.01,2013-05-14 03:20:00,
2013-05-13 20:25:00,56.8,21.4,30.21,North,-999,0.0,0.0,25,0.00,,,-99.99,FreeWX-Wi 1.01,2013-05-14 03:25:00,
2013-05-13 20:30:00,56.3,21.0,30.21,North,-999,0.0,0.0,25,0.00,,,-99.99,FreeWX-Wi 1.01,2013-05-14 03:30:00,
2013-05-13 20:35:00,55.9,21.6,30.24,North,-999,0.0,0.0,26,0.00,,,-99.99,FreeWX-Wi 1.01,2013-05-14 03:35:00,
2013-05-13 20:40:00,55.8,21.4,30.24,North,-999,0.0,0.0,26,0.00,,,-99.99,FreeWX-Wi 1.01,2013-05-14 03:40:00,
2013-05-13 20:45:00,55.6,21.2,30.24,North,-999,0.0,0.0,26,0.00,,,-99.99,FreeWX-Wi 1.01,2013-05-14 03:45:00,
2013-05-13 20:50:00,55.4,21.9,30.24,North,-999,0.0,0.0,27,0.00,,,-99.99,FreeWX-Wi 1.01,2013-05-14 03:50:00,
2013-05-13 20:55:00,55.4,21.9,30.24,North,-999,0.0,0.0,27,0.00,,,-99.99,FreeWX-Wi 1.01,2013-05-14 03:55:00,
2013-05-13 21:00:00,55.4,21.9,30.24,North,-999,0.0,0.0,27,0.00,,,-99.99,FreeWX-Wi 1.01,2013-05-14 04:00:00,
2013-05-13 21:05:00,55.4,21.9,30.24,North,-999,0.0,0.0,27,0.00,,,-99.99,FreeWX-Wi 1.01,2013-05-14 04:05:00,
2013-05-13 21:10:00,55.4,21.9,30.24,North,-999,0.0,2.7,27,0.00,,,-99.99,FreeWX-Wi 1.01,2013-05-14 04:10:00,
2013-05-13 21:15:00,55.2,22.6,30.24,North,-999,0.0,0.0,28,0.00,,,-99.99,FreeWX-Wi 1.01,2013-05-14 04:15:00,
2013-05-13 21:20:00,55.2,22.6,30.24,North,-999,0.0,0.0,28,0.00,,,-99.99,FreeWX-Wi 1.01,2013-05-14 04:20:00,
2013-05-13 21:25:00,55.0,23.4,30.24,North,-999,0.0,6.3,29,0.00,,,-99.99,FreeWX-Wi 1.01,2013-05-14 04:25:00,
2013-05-13 21:30:00,54.9,23.2,30.24,North,-999,0.0,0.0,29,0.00,,,-99.99,FreeWX-Wi 1.01,2013-05-14 04:30:00,
2013-05-13 21:35:00,54.7,23.9,30.24,North,-999,0.0,0.0,30,0.00,,,-99.99,FreeWX-Wi 1.01,2013-05-14 04:35:00,
2013-05-13 21:40:00,54.7,23.9,30.24,North,-999,0.0,0.0,30,0.00,,,-99.99,FreeWX-Wi 1.01,2013-05-14 04:40:00,
2013-05-13 21:45:00,54.5,23.7,30.24,North,-999,0.0,0.0,30,0.00,,,-99.99,FreeWX-Wi 1.01,2013-05-14 04:45:00,
2013-05-13 21:50:00,54.5,23.7,30.24,North,-999,0.0,0.0,30,0.00,,,-99.99,FreeWX-Wi 1.01,2013-05-14 04:50:00,
2013-05-13 21:55:00,54.5,23.7,30.24,North,-999,0.0,0.0,30,0.00,,,-99.99,FreeWX-Wi 1.01,2013-05-14 04:55:00,
2013-05-13 22:00:00,54.3,23.5,30.24,North,-999,0.0,0.0,30,0.00,,,-99.99,FreeWX-Wi 1.01,2013-05-14 05:00:00,
2013-05-13 22:05:00,54.1,23.4,30.24,North,-999,0.0,0.0,30,0.00,,,-99.99,FreeWX-Wi 1.01,2013-05-14 05:05:00,
2013-05-13 22:10:00,54.0,23.2,30.24,North,-999,0.0,0.0,30,0.00,,,-99.99,FreeWX-Wi 1.01,2013-05-14 05:10:00,
2013-05-13 22:15:00,54.0,24.1,30.24,North,-999,0.0,0.0,31,0.00,,,-99.99,FreeWX-Wi 1.01,2013-05-14 05:15:00,
2013-05-13 22:20:00,53.8,23.9,30.24,North,-999,0.0,0.0,31,0.00,,,-99.99,FreeWX-Wi 1.01,2013-05-14 05:20:00,
2013-05-13 22:25:00,53.6,23.7,30.24,North,-999,0.0,0.0,31,0.00,,,-99.99,FreeWX-Wi 1.01,2013-05-14 05:25:00,
2013-05-13 22:30:00,53.4,23.5,30.24,North,-999,0.0,0.0,31,0.00,,,-99.99,FreeWX-Wi 1.01,2013-05-14 05:30:00,
2013-05-13 22:35:00,53.4,23.5,30.24,North,-999,0.0,0.0,31,0.00,,,-99.99,FreeWX-Wi 1.01,2013-05-14 05:35:00,
2013-05-13 22:40:00,53.2,23.4,30.24,North,-999,0.0,0.0,31,0.00,,,-99.99,FreeWX-Wi 1.01,2013-05-14 05:40:00,
2013-05-13 22:45:00,53.1,23.2,30.24,North,-999,0.0,0.0,31,0.00,,,-99.99,FreeWX-Wi 1.01,2013-05-14 05:45:00,
2013-05-13 22:50:00,53.1,23.2,30.24,North,-999,0.0,0.0,31,0.00,,,-99.99,FreeWX-Wi 1.01,2013-05-14 05:50:00,
2013-05-13 22:55:00,52.7,23.0,30.24,North,-999,0.0,0.0,31,0.00,,,-99.99,FreeWX-Wi 1.01,2013-05-14 05:55:00,
2013-05-13 23:00:00,52.5,23.5,30.24,North,-999,0.0,3.6,32,0.00,,,-99.99,FreeWX-Wi 1.01,2013-05-14 06:00:00,
2013-05-13 23:05:00,52.3,24.8,30.24,North,-999,0.0,4.0,34,0.00,,,-99.99,FreeWX-Wi 1.01,2013-05-14 06:05:00,
2013-05-13 23:10:00,52.2,24.6,30.24,North,-999,0.0,3.1,34,0.00,,,-99.99,FreeWX-Wi 1.01,2013-05-14 06:10:00,
2013-05-13 23:15:00,52.2,26.1,30.24,North,-999,0.0,0.0,36,0.00,,,-99.99,FreeWX-Wi 1.01,2013-05-14 06:15:00,
2013-05-13 23:20:00,51.6,24.8,30.24,North,-999,0.0,0.0,35,0.00,,,-99.99,FreeWX-Wi 1.01,2013-05-14 06:20:00,
2013-05-13 23:25:00,51.4,25.3,30.24,North,-999,0.0,0.0,36,0.00,,,-99.99,FreeWX-Wi 1.01,2013-05-14 06:25:00,
2013-05-13 23:30:00,51.4,25.3,30.24,North,-999,0.0,0.0,36,0.00,,,-99.99,FreeWX-Wi 1.01,2013-05-14 06:30:00,
2013-05-13 23:35:00,51.4,25.3,30.24,North,-999,0.0,0.0,36,0.00,,,-99.99,FreeWX-Wi 1.01,2013-05-14 06:35:00,
2013-05-13 23:40:00,51.6,25.5,30.24,North,-999,0.0,0.0,36,0.00,,,-99.99,FreeWX-Wi 1.01,2013-05-14 06:40:00,
2013-05-13 23:45:00,51.6,25.5,30.24,North,-999,0.0,0.0,36,0.00,,,-99.99,FreeWX-Wi 1.01,2013-05-14 06:45:00,
2013-05-13 23:50:00,51.6,25.5,30.24,North,-999,0.0,0.0,36,0.00,,,-99.99,FreeWX-Wi 1.01,2013-05-14 06:50:00,
2013-05-13 23:55:00,51.6,25.5,30.24,North,-999,0.0,0.0,36,0.00,,,-99.99,FreeWX-Wi 1.01,2013-05-14 06:55:00,